CZ-3C DEB, 40204

Orbit data source: Space-Track

CZ-3C DEB, 40204 is space debris in HEO originally from a launch on Fri, 24 Feb 2012 UTC launched from the Xichang Space Center, China (XSC). Debris objects in space refer to the collection of defunct objects orbiting the Earth. Examples of debris include non-operational satellites, rocket bodies, and fragments generated from explosions, collisions, or faulty payload assembly.

Loading next visibility...
Identifier
40204, 2012-008P
Orbit
HEO
Country
Flag of CNCN / PRC
Related business
Manufacturer
CALT
Mission
Spacecraft
Bus & Motor
Unknown
Mass
Unknown
Launch date (UTC)
2012-02-24 (14 years ago)
Launch vehicle
Unknown
Launch site
Xichang Space Center, China (XSC)
Object type
Payload
Rocket body
Debris
Shape & HBR
Unknown shape, 0.1 m
Radar Cross Section
Medium (>0.1 m² and <1 m²)

Expand to show TLE details & history
Last TLE update: 2 days ago

TLE from 2 days ago
0 CZ-3C DEB
1 40204U 12008P   26033.51999660 -.00000172  00000-0 -14325-2 0  9999
2 40204  20.4894  60.2294 7087437 138.8859 304.8966  2.27003088 93659
Epoch: 2026-02-02T12:28Z
TLE epoch observation values (Epoch: 2026-02-02T12:28:47.706Z)
Latitude
-0°
Longitude
100.38166°
Altitude
19,682.765 km
Speed
3.78 km/s
True Right ascension
04h 01m 10s
True Declination
0° 00' 00"
Sunlit
Object was in daylight at epoch
Visualization orbit readout
Latitude
Unknown
Longitude
Unknown
Altitude
Unknown
Speed
Unknown
Apparent Right ascension
Unknown
Apparent Declination
Unknown
Sunlit
N/A
Visualization observer readout
Local Sidereal Time
09:00:40
Azimuth
Unknown
Elevation
Unknown
Doppler factor
Unknown
Orbital elements
Apogee altitude
35,417.621 km
Perigee altitude
745.973 km
Semi-major axis
24,459.934 km
Eccentricity
0.70874
Inclination
20.4894°
RAAN
60.2294°
Arg. of periapsis
138.8859°
True anomaly
221.09821°
Mean anomaly
304.8966°
Eccentric anomaly
264.47709°
Mean motion
0.56736 °/min
Orbital period
634.52 mins
BSTAR
-0.0014325
Loading maneuver chart data...
Computing Atmospheric mass density...
Loading historical data...
Loading historical data...
Loading historical data...
Loading historical data...
Loading historical data...
Loading historical data...
Loading historical data...

Documentation

Showing up to 5 results
|